Regional Weather Roundup
Issued by NWS

Home | Current Version | Previous Version | Graphics & Text | Print | Product List | Glossary On
Versions: 1 2 3 4 5 6 7 8 9 10 11 12 13 14 15 16 17 18 19 20 21 22 23 24 25 26 27 28 29 30 31 32 33 34 35 36 37 38 39 40 41 42 43 44 45 46 47 48 49 50
000
ASUS45 KSLC 291110
RWRUT

UTAH REGIONAL WEATHER ROUNDUP
NATIONAL WEATHER SERVICE SALT LAKE CITY UT
500 AM MDT SAT APR 29 2017

UTZ001>011-023>025-291200-

NORTHERN UTAH

CITY           SKY/WX    TMP DP  RH WIND       PRES   REMARKS
BRIGHAM CITY   CLEAR     41  21  45 S5        30.14R
HILL AFB       CLOUDY    37  20  50 E20G25    30.10R WCI  27
LOGAN          CLEAR     35  27  72 E8        30.14R WCI  29
OGDEN          CLEAR     38  23  55 NE17      30.10R WCI  28
SALT LAKE CITY PTCLDY    40  25  55 N12       30.09R WCI  33
TOOELE VALLEY  CLEAR     32  30  93 SE5       30.10R WCI  27
WENDOVER       CLEAR     44  23  43 NW12      30.13R
HEBER CITY     PTCLDY    34  19  55 N10       30.06R WCI  26
WEST JORDAN    CLEAR     38  33  80 N8        30.09S WCI  33

$$

UTZ011>015-024>027-291200-

CENTRAL/NORTHEAST UTAH

CITY           SKY/WX    TMP DP  RH WIND       PRES   REMARKS
PROVO AIRPORT  PTCLDY    32  30  92 S6        30.06R WCI  26
MOAB/CANYONLAN CLOUDY    40  29  64 N6        29.89R
DELTA          CLEAR     34  30  86 N5        30.06R WCI  30
PRICE          CLEAR     31  21  66 N8        29.96R WCI  23
RICHFIELD      MOCLDY    36  34  93 CALM      30.05R
ROOSEVELT      CLOUDY    30  27  86 SW7       30.03R WCI  23
VERNAL         CLEAR     35  19  52 NE18G31   30.02R WCI  24

$$

UTZ013>016-019>022-027-291200-

SOUTHERN UTAH

CITY           SKY/WX    TMP DP  RH WIND       PRES   REMARKS
BRYCE CANYON   CLOUDY    29  23  78 NW16      29.96S WCI  17
CEDAR CITY     CLOUDY    38  25  59 N10       30.02S WCI  31
MILFORD        MOCLDY    40  29  64 N16       30.03R WCI  31
ST GEORGE      MOSUNNY   48  25  40 S10       29.98R
HANKSVILLE     CLOUDY    45  25  45 NW6       29.95R
KANAB          PTCLDY    32  21  64 S6        30.01R WCI  26
BLANDING       MOCLDY    36  25  64 NW10G16   29.92R WCI  29

$$

REGIONAL REPORTS     COLORADO/ARIZONA

CITY           SKY/WX    TMP DP  RH WIND       PRES   REMARKS
CRAIG, CO      CLOUDY    34  18  52 E8        29.98R WCI  27
GRAND JUNCTION CLOUDY    39  33  79 CALM      29.89R
RIFLE, CO      MOCLDY    35  30  82 CALM      29.91R
MONTROSE, CO   LGT SNOW  32  32 100 N3        29.90R VSB 1
CORTEZ, CO     CLEAR     26  25  96 CALM      29.86R
COLORADO CITY    N/A     30  23  74 E3        30.00S
PAGE, AZ       CLOUDY    46  24  42 CALM      29.92R
GRAND CANYON   CLEAR     23  14  68 CALM      29.95R
KINGMAN, AZ    CLEAR     44  32  62 N12       29.98R
FLAGSTAFF, AZ  CLEAR     24  11  57 NE3       29.91S

$$

REGIONAL REPORTS    NEVADA/IDAHO/WYOMING

CITY           SKY/WX    TMP DP  RH WIND       PRES   REMARKS
LAS VEGAS, NV  CLEAR     57  17  21 N13       30.02R
ELY, NY        CLEAR     29  19  66 N14       30.12S WCI  18
ELKO, NV       CLEAR     28  22  78 CALM      30.19R
POCATELLO, ID  CLEAR     33  27  78 NE3       30.16R
BURLEY, ID     CLEAR     37  27  67 W8        30.16R WCI  31
FORT BRIDGER,  CLOUDY    25  25 100 N5        30.16S WCI  19
EVANSTON, WY   CLOUDY    26  21  81 NE16      30.11S WCI  14
ROCK SPRINGS,  CLOUDY    27  19  72 NE20      30.11R WCI  13

$$



USA.gov is the U.S. government's official web portal to all federal, state and local government web resources and services.